EW8744 Weather Reports


time (UTC)temp
C
wind
direction
speed
KPH
gust
KPH
rain 1hr
cm
rain 24hr
cm
rain mn
cm
humidity
%
barometer
mb
20260506221711 15 0 0.0 4.8 0.03 0.05 0.05 79 1011.6
20260506221212 15 0 0.0 4.8 0.00 0.03 0.05 79 1011.3
20260506220714 16 0 0.0 3.2 0.00 0.03 0.03 78 1011.8
20260506220708 15 0 0.0 3.2 0.00 0.03 0.03 78 1011.5
20260506215929 16 0 0.0 6.4 0.00 0.03 0.03 78 1011.7
20260506215204 16 0 0.0 6.4 0.00 0.03 0.03 78 1011.5
20260506214703 16 0 0.0 3.2 0.00 0.03 0.03 79 1011.5
20260506214202 16 0 0.0 3.2 0.00 0.03 0.03 79 1011.5
20260506213702 15 0 0.0 3.2 0.00 0.03 0.03 80 1011.8
20260506213159 15 0 0.0 3.2 0.00 0.03 0.03 79 1011.9
20260506212658 15 0 0.0 1.6 0.00 0.03 0.03 79 1012.0
20260506212156 15 0 0.0 3.2 0.00 0.03 0.03 79 1011.8
20260506211653 15 0 0.0 3.2 0.00 0.03 0.03 77 1011.9
20260506211413 16 0 0.0 3.2 0.00 0.03 0.03 78 1011.9
20260506210650 16 0 0.0 3.2 0.00 0.03 0.03 79 1011.8
20260506210148 16 0 0.0 4.8 0.00 0.03 0.03 80 1011.8
20260506205646 15 0 0.0 4.8 0.00 0.03 0.03 79 1011.9
20260506205145 15 0 0.0 4.8 0.00 0.03 0.03 79 1011.9
20260506204645 15 0 0.0 4.8 0.00 0.03 0.03 79 1012.0
20260506204629 15 0 0.0 4.8 0.00 0.03 0.03 80 1011.8
20260506203642 15 0 0.0 3.2 0.00 0.03 0.03 79 1011.8
20260506203136 15 0 0.0 3.2 0.00 0.03 0.03 79 1011.8
20260506202636 15 0 0.0 3.2 0.00 0.03 0.03 80 1012.0
20260506202132 15 0 0.0 3.2 0.00 0.03 0.03 81 1012.0
20260506201632 15 0 0.0 3.2 0.00 0.03 0.03 81 1012.2
20260506201130 14 0 0.0 1.6 0.00 0.03 0.03 82 1012.4
20260506200630 14 0 0.0 1.6 0.00 0.03 0.03 83 1012.4
20260506200127 14 0 0.0 4.8 0.00 0.03 0.03 83 1012.4
20260506195626 14 0 0.0 4.8 0.00 0.03 0.03 85 1012.4
20260506195124 13 0 0.0 3.2 0.00 0.03 0.03 86 1012.3
20260506194846 13 0 0.0 3.2 0.00 0.03 0.03 87 1012.3
20260506194124 13 0 0.0 8.0 0.00 0.03 0.03 88 1012.3
20260506193847 12 0 0.0 8.0 0.00 0.03 0.03 88 1012.4
20260506193126 12 0 0.0 4.8 0.00 0.03 0.03 88 1012.4
20260506192624 12 0 0.0 4.8 0.00 0.03 0.03 88 1012.6
20260506192124 12 0 0.0 4.8 0.00 0.03 0.03 88 1012.6
20260506191620 12 0 0.0 3.2 0.00 0.03 0.03 89 1012.4
20260506191120 12 0 0.0 3.2 0.00 0.03 0.03 88 1012.3
20260506190619 12 0 0.0 3.2 0.00 0.03 0.03 89 1012.5
20260506190118 12 0 0.0 14.5 0.00 0.03 0.03 89 1012.7
20260506185618 12 0 0.0 14.5 0.00 0.03 0.03 89 1012.7
20260506185120 12 0 0.0 4.8 0.00 0.03 0.03 89 1012.6
20260506184825 12 0 0.0 6.4 0.00 0.03 0.03 89 1012.8
20260506184709 12 0 0.0 4.8 0.00 0.03 0.03 89 1012.8
20260506183620 12 0 0.0 6.4 0.00 0.03 0.03 90 1013.1
20260506183120 12 0 0.0 4.8 0.00 0.03 0.03 90 1013.2
20260506182615 11 0 0.0 4.8 0.00 0.03 0.03 90 1013.3
20260506182115 12 0 0.0 8.0 0.00 0.03 0.03 90 1013.4
20260506181842 11 0 0.0 8.0 0.00 0.03 0.03 90 1013.3
20260506181115 11 0 0.0 4.8 0.00 0.03 0.03 90 1013.3
20260506180616 11 0 0.0 3.2 0.00 0.03 0.03 90 1013.3
20260506180115 11 0 0.0 3.2 0.00 0.03 0.03 90 1013.5
20260506175616 11 0 0.0 1.6 0.00 0.03 0.03 90 1013.6
20260506175111 11 0 0.0 1.6 0.00 0.03 0.03 90 1013.6
20260506174610 12 0 0.0 3.2 0.00 0.03 0.03 90 1013.3
20260506174110 12 0 0.0 3.2 0.00 0.03 0.03 90 1013.1
20260506173611 11 0 0.0 3.2 0.00 0.03 0.03 91 1012.9
20260506173332 11 0 0.0 4.8 0.00 0.03 0.03 90 1012.7
20260506172612 11 0 0.0 4.8 0.00 0.03 0.03 91 1012.1
20260506172554 12 0 0.0 4.8 0.00 0.03 0.03 91 1011.9
20260506171611 11 0 1.6 6.4 0.00 0.03 0.03 91 1011.6
20260506171336 11 0 1.6 8.0 0.00 0.03 0.03 92 1011.4
20260506170612 11 0 0.0 8.0 0.00 0.03 0.03 92 1011.3
20260506170105 11 0.0 0.0 0.00 0.03 0.03 93 1011.4
20260506165544 11 0.0 0.0 0.00 0.03 0.03 92 1011.7
20260506165253 11 0.0 0.0 0.00 0.03 0.03 93 1011.8
20260506164523 11 0.0 0.0 0.00 0.03 0.03 93 1012.0
20260506164022 11 0.0 0.0 0.00 0.03 0.03 93 1012.2
20260506163520 11 0.0 0.0 0.00 0.03 0.03 93 1012.4
20260506162945 11 0.0 0.0 0.00 0.03 0.03 93 1012.2
20260506162443 11 0.0 0.0 0.00 0.03 0.03 93 1011.9
20260506162200 11 0.0 0.0 0.00 0.03 0.03 93 1012.2
20260506161428 11 0.0 0.0 0.00 0.03 0.03 93 1012.1
20260506160922 11 0.0 0.0 0.00 0.03 0.03 93 1012.1
20260506160412 11 0.0 0.0 0.00 0.03 0.03 93 1012.2
20260506155905 11 0.0 0.0 0.00 0.03 0.03 93 1012.3
20260506155330 11 0.0 0.0 0.00 0.03 0.03 93 1012.4
20260506154826 11 0.0 0.0 0.03 0.03 0.03 93 1011.7
20260506154324 11 0.0 0.0 0.03 0.03 0.03 93 1011.4
20260506153821 10 0.0 0.0 0.03 0.03 0.03 93 1011.4
20260506153321 10 0.0 0.0 0.03 0.03 0.03 93 1011.9
20260506152820 10 0.0 0.0 0.03 0.03 0.03 92 1011.7
20260506152305 10 0.0 0.0 0.03 0.03 0.03 92 1012.1
20260506151758 10 0.0 0.0 0.03 0.03 0.03 92 1011.9
20260506151226 10 0.0 0.0 0.03 0.03 0.03 92 1011.2
20260506150725 10 0.0 0.0 0.03 0.03 0.03 91 1011.0
20260506150217 10 0.0 0.0 0.03 0.03 0.03 91 1010.4
20260506145657 10 0.0 0.0 0.03 0.03 0.03 90 1011.7
20260506145126 10 0.0 0.0 0.00 0.00 0.00 90 1012.9
20260506144626 10 0.0 0.0 0.00 0.00 0.00 90 1013.5
20260506144123 10 0.0 0.0 0.00 0.00 0.00 90 1013.6
20260506143613 10 0.0 0.0 0.00 0.00 0.00 89 1012.7
20260506143107 11 0.0 0.0 0.00 0.00 0.00 89 1012.4
20260506142526 11 0.0 0.0 0.00 0.00 0.00 89 1012.9
20260506142026 11 0.0 0.0 0.00 0.00 0.00 88 1012.8
20260506141453 11 0.0 0.0 0.00 0.00 0.00 88 1012.7
20260506140940 11 0.0 0.0 0.00 0.00 0.00 87 1012.9
20260506140430 11 0.0 0.0 0.00 0.00 0.00 86 1013.2
20260506140136 11 0.0 0.0 0.00 0.00 0.00 86 1013.1
20260506140015 11 0.0 0.0 0.00 0.00 0.00 87 1013.6
20260506134907 11 0.0 0.0 0.00 0.00 0.00 86 1012.4
20260506134326 11 0.0 0.0 0.00 0.00 0.00 86 1012.2
20260506133823 11 0.0 0.0 0.00 0.00 0.00 85 1011.0
20260506133315 11 0.0 0.0 0.00 0.00 0.00 85 1010.6
20260506132805 11 0.0 0.0 0.00 0.00 0.00 85 1011.6
20260506132307 11 0.0 0.0 0.00 0.00 0.00 84 1011.2
20260506132002 12 0.0 0.0 0.00 0.00 0.00 84 1011.7
20260506131223 12 0.0 0.0 0.00 0.00 0.00 84 1011.4
20260506130709 12 0.0 0.0 0.00 0.00 0.00 83 1011.3
20260506130147 12 0.0 0.0 0.00 0.00 0.00 83 1011.1
20260506130113 12 0.0 0.0 0.00 0.00 0.00 83 1010.9
20260506125123 12 0.0 0.0 0.00 0.00 0.00 83 1010.9
20260506124610 12 0.0 0.0 0.00 0.00 0.00 82 1010.6
20260506124041 12 0.0 0.0 0.00 0.00 0.00 82 1010.4
20260506123535 12 0.0 0.0 0.00 0.00 0.00 82 1010.4
20260506123022 12 0.0 0.0 0.00 0.00 0.00 82 1010.4
20260506122521 13 0.0 0.0 0.00 0.00 0.00 82 1010.3
20260506122241 13 0.0 0.0 0.00 0.00 0.00 82 1010.0
20260506121441 13 0.0 0.0 0.00 0.00 0.00 82 1009.9
20260506120925 13 0.0 0.0 0.00 0.00 0.00 82 1010.0
20260506120426 13 0.0 0.0 0.00 0.00 0.00 82 1009.9
20260506115920 13 0.0 0.0 0.00 0.00 0.00 82 1009.8
20260506115644 13 0.0 0.0 0.00 0.00 0.00 83 1009.8
20260506114839 13 0.0 0.0 0.00 0.00 0.00 83 1009.8
20260506114322 13 0.0 0.0 0.00 0.00 0.00 83 1009.8
20260506113818 13 0.0 0.0 0.00 0.00 0.00 83 1009.7
20260506113317 13 0.0 0.0 0.00 0.00 0.00 83 1009.8
20260506112815 14 0.0 0.0 0.00 0.00 0.00 83 1009.9
20260506112257 14 0.0 0.0 0.00 0.00 0.00 83 1009.8
20260506111739 14 0.0 0.0 0.00 0.00 0.00 84 1009.8
20260506111227 14 0.0 0.0 0.00 0.00 0.00 84 1009.6
20260506110719 14 0.0 0.0 0.00 0.00 0.00 84 1009.5
20260506110219 14 0.0 0.0 0.00 0.00 0.00 84 1009.5
20260506105703 14 0.0 0.0 0.00 0.00 0.00 84 1009.4
20260506105145 14 0.0 0.0 0.00 0.00 0.00 84 1009.3
20260506104640 15 0.0 0.0 0.00 0.00 0.00 84 1008.9
20260506104121 15 0.0 0.0 0.00 0.00 0.00 84 1008.9
20260506103607 15 0.0 0.0 0.00 0.00 0.00 84 1008.8
20260506103031 15 0.0 0.0 0.00 0.00 0.00 84 1008.8
20260506102527 15 0.0 0.0 0.00 0.00 0.00 84 1008.7
20260506102246 15 0.0 0.0 0.00 0.00 0.00 84 1008.7
20260506101507 15 0.0 0.0 0.00 0.00 0.00 84 1008.7
20260506100946 15 0.0 0.0 0.00 0.00 0.00 84 1008.6
20260506100425 15 0.0 0.0 0.00 0.00 0.00 83 1008.7
20260506095923 15 0.0 0.0 0.00 0.00 0.00 83 1008.5
20260506095419 15 0.0 0.0 0.00 0.00 0.00 83 1008.4
20260506094908 15 0.0 0.0 0.00 0.00 0.00 83 1008.3
20260506094326 15 0.0 0.0 0.00 0.00 0.00 83 1008.2
20260506093816 15 0.0 0.0 0.00 0.00 0.00 83 1008.2
20260506093259 15 0.0 0.0 0.00 0.00 0.00 83 1008.1
20260506093013 15 0.0 0.0 0.00 0.00 0.00 83 1008.0
20260506092229 15 0.0 0.0 0.00 0.00 0.00 82 1008.0
20260506091722 15 0.0 0.0 0.00 0.00 0.00 82 1008.0
20260506091221 15 0.0 0.0 0.00 0.00 0.00 82 1007.9
20260506090719 15 0.0 0.0 0.00 0.00 0.00 82 1008.0
20260506090139 15 0.0 0.0 0.00 0.00 0.00 82 1008.1
20260506090113 15 0.0 0.0 0.00 0.00 0.00 82 1008.1
20260506085115 15 0.0 0.0 0.00 0.00 0.00 82 1008.1
20260506084614 15 0.0 0.0 0.00 0.00 0.00 82 1008.1
20260506084055 16 0.0 0.0 0.00 0.00 0.00 82 1008.0
20260506083746 16 0.0 0.0 0.00 0.00 0.00 82 1008.0
20260506083021 16 0.0 0.0 0.00 0.00 0.00 82 1008.0
20260506082502 16 0.0 0.0 0.00 0.00 0.00 82 1008.0
20260506082001 16 0.0 0.0 0.00 0.00 0.00 81 1007.9
20260506081707 16 0.0 0.0 0.00 0.00 0.00 81 1007.9
20260506080931 16 0.0 0.0 0.00 0.00 0.00 81 1007.9
20260506080427 16 0.0 0.0 0.00 0.00 0.00 81 1008.0
20260506073417 16 0.0 0.0 0.00 0.00 0.00 81 1007.6
20260506073134 16 0.0 0.0 0.00 0.00 0.00 81 1007.4
20260506072412 16 0.0 0.0 0.00 0.00 0.00 81 1007.3
20260506071912 16 0.0 0.0 0.00 0.00 0.00 81 1007.4
20260506071341 16 0.0 0.0 0.00 0.00 0.00 81 1007.4
20260506070829 16 0.0 0.0 0.00 0.00 0.00 81 1007.4
20260506070540 16 0.0 0.0 0.00 0.00 0.00 81 1007.4
20260506062345 17 0.0 0.0 0.00 0.00 0.00 80 1007.6
20260506061620 17 0.0 0.0 0.00 0.00 0.00 79 1007.4
20260506061111 17 0.0 0.0 0.00 0.00 0.00 79 1007.3
20260506060556 17 0.0 0.0 0.00 0.00 0.00 79 1007.3
20260506050921 18 0.0 0.0 0.00 0.00 0.00 76 1007.6
20260506050416 18 0.0 0.0 0.00 0.00 0.00 76 1007.6
20260506045045 18 0.0 0.0 0.00 0.00 0.00 75 1007.2
20260506044926 18 0.0 0.0 0.00 0.00 0.00 76 1007.4
20260506043820 18 0.0 0.0 0.00 0.00 0.00 75 1007.3
20260506043318 19 0.0 0.0 0.00 0.00 0.00 74 1007.4
20260506042729 19 0.0 0.0 0.00 0.00 0.00 74 1007.4
20260506042216 19 0.0 0.0 0.00 0.00 0.00 73 1007.3
20260506041716 19 0.0 0.0 0.00 0.00 0.00 73 1007.3
20260506041155 20 0.0 0.0 0.00 0.00 0.00 73 1007.3
20260506040649 20 0.0 0.0 0.00 0.00 0.00 73 1007.4
20260506040127 20 0.0 0.0 0.00 0.00 0.00 73 1007.4
20260506035625 20 0.0 0.0 0.00 0.00 0.00 73 1007.3
20260506035125 20 0.0 0.0 0.00 0.00 0.00 73 1007.2
20260506034622 20 0.0 0.0 0.00 0.00 0.00 73 1007.1
20260506034110 20 0.0 0.0 0.00 0.00 0.00 73 1007.0
20260506033527 20 0.0 0.0 0.00 0.00 0.00 73 1006.9
20260506033024 20 0.0 0.0 0.00 0.00 0.00 72 1006.7
20260506032500 20 0.0 0.0 0.00 0.00 0.00 72 1006.7
20260506031925 20 0.0 0.0 0.00 0.00 0.00 72 1006.6
20260506031423 21 0.0 0.0 0.00 0.00 0.00 72 1006.3
20260506030851 21 0.0 0.0 0.00 0.00 0.00 71 1006.3
20260506030328 21 0.0 0.0 0.00 0.00 0.00 71 1006.2
20260506025826 21 0.0 0.0 0.00 0.00 0.00 71 1005.9
20260506025542 21 0.0 0.0 0.00 0.00 0.00 70 1005.7
20260506024820 21 0.0 0.0 0.00 0.00 0.00 70 1005.7
20260506024314 21 0.0 0.0 0.00 0.00 0.00 69 1005.9
20260506023813 21 0.0 0.0 0.00 0.00 0.00 69 1005.9
20260506023523 21 0.0 0.0 0.00 0.00 0.00 70 1005.7
20260506022743 22 0.0 0.0 0.00 0.00 0.00 70 1005.6
20260506022458 22 0.0 0.0 0.00 0.00 0.00 70 1005.4
20260506021725 22 0.0 0.0 0.00 0.00 0.00 69 1005.1
20260506021224 22 0.0 0.0 0.00 0.00 0.00 68 1005.2
20260506020722 22 0.0 0.0 0.00 0.00 0.00 68 1005.1
20260506020152 23 0.0 0.0 0.00 0.00 0.00 67 1005.1
20260506015626 23 0.0 0.0 0.00 0.00 0.00 67 1004.9
20260506015342 23 0.0 0.0 0.00 0.00 0.00 66 1004.6
20260506014538 23 0.0 0.0 0.00 0.00 0.00 66 1004.6
20260506014022 24 0.0 0.0 0.00 0.00 0.00 65 1004.4
20260506013505 24 0.0 0.0 0.00 0.00 0.00 65 1004.2
20260506012935 25 0.0 0.0 0.00 0.00 0.00 64 1004.0
20260506012425 25 0.0 0.0 0.00 0.00 0.00 64 1003.7
20260506011925 25 0 0.0 1.6 0.00 0.00 0.00 64 1003.8
20260506011641 26 0 0.0 1.6 0.00 0.00 0.00 62 1004.0
20260506010903 26 0 0.0 6.4 0.00 0.00 0.00 61 1003.7
20260506010400 27 0 0.0 6.4 0.00 0.00 0.00 60 1003.6
20260506005900 27 0 0.0 6.4 0.00 0.00 0.00 58 1003.6
20260506005614 28 0 0.0 6.4 0.00 0.00 0.00 56 1003.5
20260506005117 28 0 0.0 4.8 0.00 0.00 0.00 54 1003.4
20260506004600 29 0 0.0 4.8 0.00 0.00 0.00 52 1003.3
20260506004058 30 0 0.0 3.2 0.00 0.00 0.00 50 1003.2
20260506003338 31 0 0.0 1.6 0.00 0.00 0.00 51 1003.2
20260506003311 31 0 0.0 3.2 0.00 0.00 0.00 49 1003.0
20260506002317 31 0 0.0 3.2 0.00 0.00 0.00 49 1002.9
20260506001812 31 0 0.0 4.8 0.00 0.00 0.00 48 1003.0
20260506001306 31 0 1.6 4.8 0.00 0.00 0.00 47 1003.0
20260506000803 32 0 1.6 6.4 0.00 0.00 0.00 46 1002.9
20260506000303 32 0 1.6 6.4 0.00 0.00 0.00 47 1003.0
20260505235803 32 0 3.2 8.0 0.00 0.00 0.00 47 1003.0
20260505235524 32 0 3.2 8.0 0.00 0.00 0.00 45 1003.1
20260505234803 32 0 3.2 9.7 0.00 0.00 0.00 45 1003.0
20260505234303 32 0 3.2 12.9 0.00 0.00 0.00 46 1002.9
20260505234024 32 0 3.2 12.9 0.00 0.00 0.00 46 1002.7
20260505233300 32 0 3.2 12.9 0.00 0.00 0.00 46 1002.7
20260505232800 32 0 4.8 12.9 0.00 0.00 0.00 45 1002.7
20260505232523 32 0 3.2 9.7 0.00 0.00 0.00 45 1002.6
20260505231757 32 0 4.8 9.7 0.00 0.00 0.00 45 1002.6
20260505231736 32 0 3.2 9.7 0.00 0.00 0.00 46 1002.6
20260505230754 32 0 3.2 8.0 0.00 0.00 0.00 46 1002.7
20260505230303 32 0 4.8 14.5 0.00 0.00 0.00 47 1002.7
20260505225752 32 0 4.8 14.5 0.00 0.00 0.00 47 1002.7
20260505225251 33 0 4.8 12.9 0.00 0.00 0.00 45 1002.7
20260505224752 33 0 4.8 12.9 0.00 0.00 0.00 46 1002.7
20260505224251 33 0 4.8 12.9 0.00 0.00 0.00 46 1002.7
20260505223752 33 0 3.2 9.7 0.00 0.00 0.00 46 1002.7
20260505223508 33 0 3.2 9.7 0.00 0.00 0.00 48 1002.7
20260505222740 33 0 1.6 6.4 0.00 0.00 0.00 48 1002.7
20260505222234 33 0 3.2 8.0 0.00 0.00 0.00 47 1002.7